Weather History for Chandler, OK

Change the Weather History Date:

Friday, April 25, 2014

  Actual Average (KCUH) Record (KCUH)
Temperature  
Mean Temperature 65 °F -  
Max Temperature 82 °F 75 °F 91 °F (1975)
Min Temperature 48 °F 51 °F 33 °F (2013)
Growing Degree Days 15 (Base 50)    
Moisture  
Dew Point 44 °F    
Average Humidity 49    
Maximum Humidity 82    
Minimum Humidity 28    
Precipitation  
Precipitation 0.00 in - - ()
Sea Level Pressure  
Sea Level Pressure 29.94 in    
Wind  
Wind Speed 8 mph (SSW)    
Max Wind Speed 17 mph    
Max Gust Speed 25 mph    
Visibility 10 miles    
Events      
Averages and records for this station are not official NWS values.
T = Trace of Precipitation, MM = Missing Value Source: NWS Daily Summary

Daily Weather History Graph

Daily Weather History Graph

Search for Another Location

Airport:

Trip Planner

Search our weather history database for the weather conditions in past years. The results will help you decide how hot, cold, wet, or windy it might be!

Date:

Astronomy

Apr. 25, 2014 Rise Set
Actual Time 6:41 AM CDT 8:09 PM CDT
Civil Twilight 6:15 AM CDT 8:36 PM CDT
Nautical Twilight 5:42 AM CDT 9:08 PM CDT
Astronomical Twilight 5:09 AM CDT 9:42 PM CDT
Moon 4:22 AM CDT (4/25) 4:39 PM CDT (4/25)
Length of Visible Light 14h 20m
Length of Day
13h 27m
Waning Crescent, 15% of the Moon is Illuminated
Apr 25
Waning Crescent
Apr 29
New
May 6
First Quarter
May 14
Full
May 21
Last Quarter

Hourly Weather History & Observations

Time (CDT) Temp. Dew Point Humidity Pressure Visibility Wind Dir Wind Speed Gust Speed Precip Events Conditions
12:15 AM 53.6 °F 41.0 °F 62% 29.96 in 10.0 mi South 3.5 mph - N/A   Clear
12:35 AM 53.6 °F 42.8 °F 67% 29.96 in 10.0 mi SSW 5.8 mph - N/A   Clear
12:55 AM 53.6 °F 42.8 °F 67% 29.97 in 10.0 mi SW 5.8 mph - N/A   Clear
1:15 AM 53.6 °F 42.8 °F 67% 29.97 in 10.0 mi SSW 5.8 mph - N/A   Clear
1:35 AM 53.6 °F 42.8 °F 67% 29.96 in 10.0 mi SSW 6.9 mph - N/A   Clear
1:55 AM 51.8 °F 42.8 °F 71% 29.96 in 10.0 mi SSW 4.6 mph - N/A   Clear
2:15 AM 51.8 °F 42.8 °F 71% 29.96 in 10.0 mi SSW 5.8 mph - N/A   Clear
2:35 AM 51.8 °F 42.8 °F 71% 29.96 in 10.0 mi SSW 6.9 mph - N/A   Clear
2:55 AM 51.8 °F 42.8 °F 71% 29.96 in 10.0 mi SSW 6.9 mph - N/A   Clear
3:15 AM 50.0 °F 42.8 °F 76% 29.95 in 10.0 mi SSW 5.8 mph - N/A   Clear
3:35 AM 51.8 °F 42.8 °F 71% 29.95 in 10.0 mi SSW 5.8 mph - N/A   Clear
3:55 AM 50.0 °F 42.8 °F 76% 29.95 in 10.0 mi SW 6.9 mph - N/A   Clear
4:15 AM 50.0 °F 42.8 °F 76% 29.96 in 10.0 mi SSW 6.9 mph - N/A   Clear
4:35 AM 50.0 °F 42.8 °F 76% 29.96 in 10.0 mi SW 6.9 mph - N/A   Clear
4:55 AM 51.8 °F 42.8 °F 71% 29.96 in 10.0 mi SW 5.8 mph - N/A   Clear
5:15 AM 51.8 °F 42.8 °F 71% 29.97 in 10.0 mi SW 8.1 mph - N/A   Clear
5:35 AM 51.8 °F 42.8 °F 71% 29.97 in 10.0 mi SW 8.1 mph - N/A   Clear
5:55 AM 50.0 °F 42.8 °F 76% 29.97 in 10.0 mi SW 6.9 mph - N/A   Clear
6:15 AM 50.0 °F 42.8 °F 76% 29.98 in 10.0 mi SW 6.9 mph - N/A   Clear
6:35 AM 50.0 °F 42.8 °F 76% 29.98 in 10.0 mi SSW 6.9 mph - N/A   Clear
6:55 AM 48.2 °F 42.8 °F 82% 29.99 in 10.0 mi South 5.8 mph - N/A   Clear
7:15 AM 50.0 °F 42.8 °F 76% 30.00 in 10.0 mi SW 6.9 mph - N/A   Clear
7:35 AM 50.0 °F 44.6 °F 82% 30.00 in 10.0 mi SSW 5.8 mph - N/A   Clear
7:55 AM 51.8 °F 44.6 °F 76% 30.00 in 10.0 mi SSW 5.8 mph - N/A   Clear
8:15 AM 55.4 °F 44.6 °F 67% 30.01 in 10.0 mi SSW 4.6 mph - N/A   Clear
8:35 AM 59.0 °F 44.6 °F 59% 30.02 in 10.0 mi SSW 8.1 mph - N/A   Clear
8:55 AM 60.8 °F 44.6 °F 55% 30.02 in 10.0 mi SSW 10.4 mph - N/A   Clear
9:15 AM 62.6 °F 44.6 °F 52% 30.02 in 10.0 mi SSW 9.2 mph - N/A   Clear
9:35 AM 66.2 °F 44.6 °F 46% 30.02 in 10.0 mi South 8.1 mph - N/A   Clear
9:55 AM 68.0 °F 44.6 °F 43% 30.02 in 10.0 mi SSW 11.5 mph - N/A   Clear
10:15 AM 71.6 °F 42.8 °F 35% 30.02 in 10.0 mi South 11.5 mph - N/A   Clear
10:35 AM 73.4 °F 42.8 °F 33% 30.02 in 10.0 mi SSW 11.5 mph - N/A   Clear
10:55 AM 73.4 °F 42.8 °F 33% 30.02 in 10.0 mi SSW 12.7 mph - N/A   Clear
11:15 AM 77.0 °F 42.8 °F 29% 30.02 in 10.0 mi SSW 13.8 mph 18.4 mph N/A   Clear
11:35 AM 77.0 °F 42.8 °F 29% 30.02 in 10.0 mi South 13.8 mph 19.6 mph N/A   Clear
11:55 AM 77.0 °F 42.8 °F 29% 30.01 in 10.0 mi South 12.7 mph 19.6 mph N/A   Clear
12:15 PM 77.0 °F 42.8 °F 29% 30.00 in 10.0 mi South 15.0 mph 21.9 mph N/A   Clear
12:55 PM 78.8 °F 44.6 °F 30% 30.00 in 10.0 mi South 13.8 mph 23.0 mph N/A   Clear
1:15 PM 80.6 °F 44.6 °F 28% 29.99 in 10.0 mi South 13.8 mph 20.7 mph N/A   Clear
1:35 PM 80.6 °F 44.6 °F 28% 29.97 in 10.0 mi SSW 11.5 mph 21.9 mph N/A   Clear
1:55 PM 80.6 °F 46.4 °F 30% 29.97 in 10.0 mi South 11.5 mph 19.6 mph N/A   Clear
2:15 PM 80.6 °F 46.4 °F 30% 29.96 in 10.0 mi SSW 13.8 mph 21.9 mph N/A   Clear
2:35 PM 80.6 °F 44.6 °F 28% 29.95 in 10.0 mi SSW 11.5 mph - N/A   Clear
2:55 PM 80.6 °F 46.4 °F 30% 29.94 in 10.0 mi South 10.4 mph 19.6 mph N/A   Clear
3:15 PM 82.4 °F 46.4 °F 28% 29.92 in 10.0 mi South 12.7 mph 23.0 mph N/A   Clear
3:35 PM 82.4 °F 46.4 °F 28% 29.91 in 10.0 mi South 16.1 mph 25.3 mph N/A   Clear
3:55 PM 82.4 °F 46.4 °F 28% 29.90 in 10.0 mi South 15.0 mph - N/A   Clear
4:15 PM 82.4 °F 46.4 °F 28% 29.90 in 10.0 mi South 17.3 mph 25.3 mph N/A   Clear
4:35 PM 82.4 °F 48.2 °F 30% 29.89 in 10.0 mi South 16.1 mph 21.9 mph N/A   Clear
4:55 PM 82.4 °F 46.4 °F 28% 29.88 in 10.0 mi South 10.4 mph 21.9 mph N/A   Clear
5:15 PM 82.4 °F 46.4 °F 28% 29.87 in 10.0 mi SSW 13.8 mph 19.6 mph N/A   Clear
5:35 PM 82.4 °F 46.4 °F 28% 29.86 in 10.0 mi South 17.3 mph 20.7 mph N/A   Clear
5:55 PM 80.6 °F 46.4 °F 30% 29.86 in 10.0 mi South 13.8 mph 23.0 mph N/A   Clear
6:15 PM 80.6 °F 48.2 °F 32% 29.85 in 10.0 mi South 16.1 mph 20.7 mph N/A   Clear
6:35 PM 80.6 °F 46.4 °F 30% 29.85 in 10.0 mi South 13.8 mph 24.2 mph N/A   Clear
6:55 PM 78.8 °F 46.4 °F 32% 29.85 in 10.0 mi South 12.7 mph 19.6 mph N/A   Clear
7:15 PM 78.8 °F 46.4 °F 32% 29.85 in 10.0 mi South 13.8 mph 19.6 mph N/A   Clear
7:35 PM 77.0 °F 46.4 °F 34% 29.85 in 10.0 mi South 12.7 mph 17.3 mph N/A   Clear
7:55 PM 75.2 °F 46.4 °F 36% 29.85 in 10.0 mi South 9.2 mph - N/A   Clear
8:15 PM 73.4 °F 44.6 °F 36% 29.86 in 10.0 mi South 9.2 mph - N/A   Clear
8:35 PM 71.6 °F 44.6 °F 38% 29.86 in 10.0 mi South 6.9 mph - N/A   Clear
8:55 PM 69.8 °F 46.4 °F 43% 29.86 in 10.0 mi South 6.9 mph - N/A   Clear
9:15 PM 68.0 °F 46.4 °F 46% 29.85 in 10.0 mi South 9.2 mph - N/A   Clear
9:35 PM 68.0 °F 44.6 °F 43% 29.85 in 10.0 mi South 9.2 mph - N/A   Clear
9:55 PM 68.0 °F 44.6 °F 43% 29.85 in 10.0 mi South 10.4 mph - N/A   Clear
10:15 PM 68.0 °F 44.6 °F 43% 29.85 in 10.0 mi South 10.4 mph 17.3 mph N/A   Clear
10:35 PM 68.0 °F 44.6 °F 43% 29.85 in 10.0 mi South 9.2 mph - N/A   Clear
11:15 PM 66.2 °F 44.6 °F 46% 29.85 in 10.0 mi South 9.2 mph - N/A   Clear
11:35 PM 64.4 °F 44.6 °F 49% 29.84 in 10.0 mi SSE 11.5 mph - N/A   Clear
11:55 PM 64.4 °F 44.6 °F 49% 29.83 in 10.0 mi South 10.4 mph - N/A   Clear